| time (UTC) | temp F | wind direction | speed knots | gust knots | rain 1hr in | rain 24hr in | rain mn in | humidity % | barometer mb |
| 20260505212111 | 79 | 222 | 4.3 | 12.2 | 0.00 | 0.00 | 0.37 | 31 | 1015.2 |
| 20260505211557 | 79 | 93 | 0.9 | 12.2 | 0.00 | 0.00 | 0.37 | 34 | 1015.2 |
| 20260505211044 | 80 | 162 | 1.7 | 12.2 | 0.00 | 0.00 | 0.37 | 33 | 1015.2 |
| 20260505210529 | 79 | 269 | 5.2 | 12.2 | 0.00 | 0.00 | 0.37 | 34 | 1015.2 |
| 20260505205957 | 79 | 237 | 1.7 | 12.2 | 0.00 | 0.00 | 0.37 | 31 | 1015.2 |
| 20260505205435 | 79 | 194 | 6.1 | 12.2 | 0.00 | 0.00 | 0.37 | 33 | 1015.6 |
| 20260505204919 | 79 | 220 | 0.9 | 12.2 | 0.00 | 0.00 | 0.37 | 32 | 1015.6 |
| 20260505204406 | 79 | 225 | 6.1 | 12.2 | 0.00 | 0.00 | 0.37 | 30 | 1015.6 |
| 20260505203853 | 79 | 240 | 7.0 | 12.2 | 0.00 | 0.00 | 0.37 | 30 | 1015.6 |
| 20260505203321 | 79 | 241 | 3.5 | 12.2 | 0.00 | 0.00 | 0.37 | 35 | 1015.2 |
| 20260505202801 | 79 | 231 | 3.5 | 12.2 | 0.00 | 0.00 | 0.37 | 31 | 1015.2 |
| 20260505202240 | 78 | 142 | 4.3 | 12.2 | 0.00 | 0.00 | 0.37 | 34 | 1015.2 |
| 20260505201718 | 79 | 165 | 2.6 | 12.2 | 0.00 | 0.00 | 0.37 | 35 | 1015.2 |
| 20260505201157 | 79 | 238 | 3.5 | 12.2 | 0.00 | 0.00 | 0.37 | 34 | 1015.6 |
| 20260505200645 | 79 | 272 | 2.6 | 12.2 | 0.00 | 0.00 | 0.37 | 35 | 1015.6 |
| 20260505200131 | 79 | 249 | 1.7 | 12.2 | 0.00 | 0.00 | 0.37 | 36 | 1015.9 |
| 20260505195619 | 78 | 69 | 0.9 | 12.2 | 0.00 | 0.00 | 0.37 | 35 | 1015.6 |
| 20260505195102 | 78 | 157 | 1.7 | 12.2 | 0.00 | 0.00 | 0.37 | 37 | 1015.9 |
| 20260505194553 | 78 | 227 | 7.8 | 12.2 | 0.00 | 0.00 | 0.37 | 32 | 1016.3 |
| 20260505194032 | 78 | 231 | 0.9 | 12.2 | 0.00 | 0.00 | 0.37 | 34 | 1015.9 |
| 20260505193520 | 78 | 184 | 4.3 | 12.2 | 0.00 | 0.00 | 0.37 | 34 | 1015.9 |
| 20260505193007 | 78 | 342 | 1.7 | 12.2 | 0.00 | 0.00 | 0.37 | 33 | 1016.3 |
| 20260505192454 | 78 | 254 | 3.5 | 12.2 | 0.00 | 0.00 | 0.37 | 33 | 1016.3 |
| 20260505191938 | 78 | 195 | 1.7 | 12.2 | 0.00 | 0.00 | 0.37 | 35 | 1016.6 |
| 20260505191429 | 78 | 142 | 2.6 | 12.2 | 0.00 | 0.00 | 0.37 | 34 | 1016.6 |
| 20260505190916 | 77 | 95 | 1.7 | 12.2 | 0.00 | 0.00 | 0.37 | 32 | 1016.6 |
| 20260505190401 | 78 | 246 | 2.6 | 12.2 | 0.00 | 0.00 | 0.37 | 34 | 1016.6 |
| 20260505185849 | 78 | 214 | 2.6 | 12.2 | 0.00 | 0.00 | 0.37 | 35 | 1016.6 |
| 20260505185337 | 78 | 223 | 4.3 | 12.2 | 0.00 | 0.00 | 0.37 | 33 | 1016.9 |
| 20260505184823 | 77 | 268 | 0.9 | 12.2 | 0.00 | 0.00 | 0.37 | 37 | 1016.9 |
| 20260505184310 | 78 | 133 | 7.8 | 12.2 | 0.00 | 0.00 | 0.37 | 36 | 1016.9 |
| 20260505183756 | 78 | 249 | 7.0 | 12.2 | 0.00 | 0.00 | 0.37 | 34 | 1016.9 |
| 20260505183244 | 78 | 135 | 2.6 | 12.2 | 0.00 | 0.00 | 0.37 | 36 | 1016.9 |
| 20260505182728 | 78 | 259 | 1.7 | 12.2 | 0.00 | 0.00 | 0.37 | 33 | 1016.9 |
| 20260505182216 | 78 | 274 | 3.5 | 12.2 | 0.00 | 0.00 | 0.37 | 35 | 1017.3 |
| 20260505181656 | 77 | 151 | 2.6 | 12.2 | 0.00 | 0.00 | 0.37 | 38 | 1016.9 |
| 20260505181133 | 78 | 235 | 5.2 | 12.2 | 0.00 | 0.00 | 0.37 | 36 | 1017.3 |
| 20260505180620 | 77 | 215 | 1.7 | 12.2 | 0.00 | 0.00 | 0.37 | 35 | 1017.3 |
| 20260505180107 | 77 | 331 | 1.7 | 12.2 | 0.00 | 0.00 | 0.37 | 40 | 1017.3 |
| 20260505175554 | 76 | 248 | 1.7 | 12.2 | 0.00 | 0.00 | 0.37 | 40 | 1017.3 |
| 20260505175040 | 76 | 246 | 4.3 | 12.2 | 0.00 | 0.00 | 0.37 | 38 | 1017.3 |
| 20260505174526 | 77 | 222 | 3.5 | 12.2 | 0.00 | 0.00 | 0.37 | 37 | 1017.3 |
| 20260505174016 | 77 | 216 | 3.5 | 12.2 | 0.00 | 0.00 | 0.37 | 38 | 1017.3 |
| 20260505173500 | 77 | 213 | 6.1 | 12.2 | 0.00 | 0.00 | 0.37 | 35 | 1017.3 |
| 20260505172949 | 77 | 189 | 1.7 | 12.2 | 0.00 | 0.00 | 0.37 | 36 | 1017.3 |
| 20260505172434 | 77 | 184 | 6.1 | 12.2 | 0.00 | 0.00 | 0.37 | 42 | 1017.3 |
| 20260505171924 | 76 | 124 | 1.7 | 12.2 | 0.00 | 0.00 | 0.37 | 44 | 1017.3 |
| 20260505171409 | 76 | 103 | 0.0 | 12.2 | 0.00 | 0.00 | 0.37 | 46 | 1017.3 |
| 20260505170854 | 76 | 169 | 3.5 | 12.2 | 0.00 | 0.00 | 0.37 | 48 | 1017.6 |
| 20260505170343 | 76 | 233 | 4.3 | 12.2 | 0.00 | 0.00 | 0.37 | 45 | 1017.3 |
| 20260505165830 | 75 | 246 | 6.1 | 12.2 | 0.00 | 0.00 | 0.37 | 42 | 1017.9 |
| 20260505165307 | 75 | 226 | 5.2 | 12.2 | 0.00 | 0.00 | 0.37 | 49 | 1017.6 |
| 20260505164747 | 75 | 249 | 6.1 | 12.2 | 0.00 | 0.00 | 0.37 | 49 | 1017.6 |
| 20260505164227 | 75 | 249 | 3.5 | 12.2 | 0.00 | 0.00 | 0.37 | 50 | 1017.6 |
| 20260505163704 | 74 | 193 | 0.9 | 12.2 | 0.00 | 0.00 | 0.37 | 51 | 1017.6 |
| 20260505163151 | 74 | 251 | 3.5 | 12.2 | 0.00 | 0.00 | 0.37 | 46 | 1017.9 |
| 20260505162635 | 74 | 219 | 4.3 | 11.3 | 0.00 | 0.00 | 0.37 | 53 | 1017.9 |
| 20260505162125 | 74 | 122 | 0.0 | 11.3 | 0.00 | 0.00 | 0.37 | 55 | 1017.9 |
| 20260505161550 | 74 | 220 | 9.6 | 11.3 | 0.00 | 0.00 | 0.37 | 53 | 1017.9 |
| 20260505161029 | 74 | 231 | 5.2 | 11.3 | 0.00 | 0.00 | 0.37 | 53 | 1017.9 |
| 20260505160527 | 74 | 207 | 1.7 | 11.3 | 0.00 | 0.00 | 0.37 | 54 | 1018.3 |
| 20260505153354 | 72 | 283 | 2.6 | 11.3 | 0.00 | 0.00 | 0.37 | 65 | 1018.6 |
| 20260505152840 | 72 | 223 | 7.8 | 11.3 | 0.00 | 0.00 | 0.37 | 64 | 1018.3 |
| 20260505152328 | 71 | 228 | 3.5 | 11.3 | 0.00 | 0.00 | 0.37 | 62 | 1018.3 |
| 20260505151810 | 71 | 265 | 4.3 | 11.3 | 0.00 | 0.00 | 0.37 | 62 | 1018.3 |
| 20260505151248 | 71 | 238 | 1.7 | 11.3 | 0.00 | 0.00 | 0.37 | 64 | 1018.6 |
| 20260505150747 | 71 | 168 | 0.0 | 11.3 | 0.00 | 0.00 | 0.37 | 68 | 1018.6 |
| 20260505150226 | 71 | 245 | 3.5 | 11.3 | 0.00 | 0.00 | 0.37 | 70 | 1018.6 |
| 20260505140446 | 67 | 231 | 2.6 | 10.4 | 0.00 | 0.00 | 0.37 | 82 | 1018.6 |
| 20260505130109 | 63 | 231 | 0.9 | 7.0 | 0.00 | 0.00 | 0.37 | 94 | 1018.6 |
| 20260505125035 | 62 | 241 | 3.5 | 7.0 | 0.00 | 0.00 | 0.37 | 96 | 1018.6 |
| 20260505124520 | 62 | 218 | 5.2 | 7.0 | 0.00 | 0.00 | 0.37 | 97 | 1018.3 |
| 20260505124007 | 61 | 277 | 0.0 | 7.0 | 0.00 | 0.00 | 0.37 | 99 | 1018.6 |
| 20260505123453 | 61 | 225 | 5.2 | 7.0 | 0.00 | 0.00 | 0.37 | 100 | 1018.6 |
| 20260505122936 | 60 | 233 | 1.7 | 7.0 | 0.00 | 0.00 | 0.37 | 100 | 1018.3 |
| 20260505122424 | 60 | 234 | 2.6 | 7.0 | 0.00 | 0.00 | 0.37 | 100 | 1018.3 |
| 20260505121911 | 59 | 234 | 0.9 | 7.0 | 0.00 | 0.00 | 0.37 | 100 | 1018.3 |
| 20260505121356 | 59 | 237 | 4.3 | 7.0 | 0.00 | 0.00 | 0.37 | 100 | 1018.6 |
| 20260505120838 | 58 | 230 | 0.9 | 7.0 | 0.00 | 0.00 | 0.37 | 100 | 1018.3 |
| 20260505120335 | 58 | 230 | 1.7 | 7.0 | 0.00 | 0.00 | 0.37 | 100 | 1018.3 |
| 20260505115812 | 57 | 224 | 2.6 | 7.0 | 0.00 | 0.00 | 0.37 | 100 | 1018.3 |
| 20260505115248 | 57 | 224 | 0.9 | 7.0 | 0.00 | 0.00 | 0.37 | 100 | 1018.3 |
| 20260505114735 | 57 | 224 | 0.9 | 7.0 | 0.00 | 0.00 | 0.37 | 100 | 1018.3 |
| 20260505114219 | 56 | 229 | 0.9 | 7.0 | 0.00 | 0.00 | 0.37 | 100 | 1018.3 |
| 20260505113706 | 56 | 229 | 0.9 | 7.0 | 0.00 | 0.00 | 0.37 | 100 | 1017.9 |
| 20260505113153 | 56 | 229 | 1.7 | 7.0 | 0.00 | 0.00 | 0.37 | 100 | 1017.9 |
| 20260505112635 | 56 | 229 | 1.7 | 7.0 | 0.00 | 0.00 | 0.37 | 100 | 1018.3 |
| 20260505112122 | 55 | 229 | 0.9 | 7.0 | 0.00 | 0.00 | 0.37 | 100 | 1017.9 |
| 20260505111604 | 55 | 229 | 0.0 | 7.0 | 0.00 | 0.00 | 0.37 | 100 | 1017.9 |
| 20260505111102 | 54 | 229 | 0.0 | 7.0 | 0.00 | 0.00 | 0.37 | 100 | 1017.9 |
| 20260505110601 | 54 | 229 | 0.0 | 7.0 | 0.00 | 0.00 | 0.37 | 100 | 1017.9 |
| 20260505101819 | 53 | 229 | 0.0 | 7.0 | 0.00 | 0.00 | 0.37 | 100 | 1017.3 |
| 20260505101247 | 53 | 229 | 0.0 | 7.0 | 0.00 | 0.00 | 0.37 | 100 | 1016.9 |
| 20260505100722 | 53 | 229 | 0.0 | 7.0 | 0.00 | 0.00 | 0.37 | 100 | 1017.3 |
| 20260505100208 | 53 | 229 | 0.0 | 7.0 | 0.00 | 0.00 | 0.37 | 100 | 1017.3 |
| 20260505095654 | 53 | 229 | 0.0 | 7.0 | 0.00 | 0.00 | 0.37 | 100 | 1017.3 |
| 20260505095139 | 53 | 229 | 0.0 | 7.0 | 0.00 | 0.00 | 0.37 | 100 | 1017.3 |
| 20260505094625 | 54 | 229 | 0.0 | 7.0 | 0.00 | 0.00 | 0.37 | 100 | 1016.9 |
| 20260505094110 | 54 | 229 | 0.0 | 7.0 | 0.00 | 0.00 | 0.37 | 100 | 1016.9 |
| 20260505093553 | 54 | 229 | 0.0 | 7.0 | 0.00 | 0.00 | 0.37 | 100 | 1017.3 |
| 20260505093040 | 54 | 229 | 0.0 | 7.0 | 0.00 | 0.00 | 0.37 | 100 | 1017.3 |
| 20260505092526 | 54 | 229 | 0.0 | 7.0 | 0.00 | 0.00 | 0.37 | 100 | 1016.9 |
| 20260505092011 | 54 | 229 | 0.0 | 7.0 | 0.00 | 0.00 | 0.37 | 100 | 1016.6 |
| 20260505091455 | 54 | 229 | 0.0 | 7.0 | 0.00 | 0.00 | 0.37 | 100 | 1016.9 |
| 20260505090952 | 55 | 229 | 0.0 | 7.0 | 0.00 | 0.00 | 0.37 | 100 | 1016.6 |
| 20260505090450 | 55 | 229 | 0.0 | 7.0 | 0.00 | 0.00 | 0.37 | 100 | 1016.9 |
| 20260505085945 | 55 | 229 | 0.0 | 7.0 | 0.00 | 0.00 | 0.37 | 100 | 1016.9 |
| 20260505085431 | 55 | 229 | 0.0 | 7.0 | 0.00 | 0.00 | 0.37 | 100 | 1016.6 |
| 20260505084916 | 55 | 229 | 0.9 | 7.0 | 0.00 | 0.00 | 0.37 | 100 | 1016.9 |
| 20260505084404 | 56 | 229 | 0.0 | 7.0 | 0.00 | 0.00 | 0.37 | 100 | 1016.6 |
| 20260505083849 | 56 | 229 | 0.0 | 7.0 | 0.00 | 0.00 | 0.37 | 100 | 1016.6 |
| 20260505083333 | 56 | 229 | 0.9 | 7.0 | 0.00 | 0.00 | 0.37 | 100 | 1016.9 |
| 20260505082820 | 56 | 229 | 1.7 | 7.0 | 0.00 | 0.00 | 0.37 | 100 | 1016.6 |
| 20260505082305 | 56 | 229 | 0.0 | 7.0 | 0.00 | 0.00 | 0.37 | 100 | 1016.9 |
| 20260505081757 | 56 | 229 | 1.7 | 7.0 | 0.00 | 0.00 | 0.37 | 98 | 1016.6 |
| 20260505081255 | 57 | 229 | 0.0 | 7.0 | 0.00 | 0.00 | 0.37 | 97 | 1016.6 |
| 20260505080741 | 57 | 229 | 1.7 | 7.0 | 0.00 | 0.00 | 0.37 | 96 | 1016.6 |
| 20260505080226 | 57 | 229 | 3.5 | 7.0 | 0.00 | 0.00 | 0.37 | 96 | 1016.6 |
| 20260505075711 | 57 | 229 | 2.6 | 7.0 | 0.00 | 0.00 | 0.37 | 94 | 1016.6 |
| 20260505075156 | 57 | 229 | 2.6 | 7.0 | 0.00 | 0.00 | 0.37 | 100 | 1016.9 |
| 20260505074650 | 58 | 229 | 2.6 | 7.0 | 0.00 | 0.00 | 0.37 | 100 | 1016.6 |
| 20260505074125 | 58 | 229 | 2.6 | 7.0 | 0.00 | 0.00 | 0.37 | 100 | 1016.6 |
| 20260505073610 | 58 | 229 | 0.9 | 7.0 | 0.00 | 0.00 | 0.37 | 92 | 1016.6 |
| 20260505073055 | 58 | 228 | 1.7 | 7.0 | 0.00 | 0.00 | 0.37 | 92 | 1016.6 |
| 20260505072549 | 58 | 225 | 2.6 | 7.0 | 0.00 | 0.00 | 0.37 | 92 | 1016.3 |
| 20260505072033 | 57 | 231 | 1.7 | 7.0 | 0.00 | 0.00 | 0.37 | 100 | 1016.6 |
| 20260505071522 | 57 | 221 | 0.9 | 7.0 | 0.00 | 0.00 | 0.37 | 100 | 1016.3 |
| 20260505071010 | 57 | 220 | 1.7 | 7.0 | 0.00 | 0.00 | 0.37 | 100 | 1016.3 |
| 20260505070454 | 57 | 217 | 0.9 | 7.0 | 0.00 | 0.00 | 0.37 | 100 | 1016.6 |
| 20260505065939 | 58 | 233 | 0.0 | 7.0 | 0.00 | 0.00 | 0.37 | 94 | 1016.6 |
| 20260505065427 | 58 | 232 | 0.0 | 7.0 | 0.00 | 0.00 | 0.37 | 92 | 1016.3 |
| 20260505064912 | 58 | 232 | 0.0 | 7.0 | 0.00 | 0.00 | 0.37 | 92 | 1016.9 |
| 20260505064358 | 58 | 232 | 0.0 | 7.0 | 0.00 | 0.00 | 0.37 | 92 | 1016.6 |
| 20260505063842 | 58 | 232 | 1.7 | 7.0 | 0.00 | 0.00 | 0.37 | 91 | 1016.6 |
| 20260505063326 | 58 | 232 | 0.0 | 7.0 | 0.00 | 0.00 | 0.37 | 90 | 1016.6 |
| 20260505062812 | 58 | 232 | 0.9 | 7.0 | 0.00 | 0.00 | 0.37 | 90 | 1016.6 |
| 20260505062300 | 58 | 232 | 2.6 | 7.0 | 0.00 | 0.00 | 0.37 | 90 | 1016.6 |
| 20260505061745 | 58 | 229 | 0.0 | 7.0 | 0.00 | 0.00 | 0.37 | 89 | 1016.6 |
| 20260505061240 | 58 | 229 | 0.0 | 7.0 | 0.00 | 0.00 | 0.37 | 88 | 1016.9 |
| 20260505060725 | 58 | 229 | 0.0 | 7.0 | 0.00 | 0.00 | 0.37 | 87 | 1016.6 |
| 20260505060213 | 59 | 229 | 0.0 | 7.0 | 0.00 | 0.00 | 0.37 | 86 | 1016.6 |
| 20260505055659 | 59 | 229 | 0.9 | 7.0 | 0.00 | 0.00 | 0.37 | 85 | 1016.6 |
| 20260505055143 | 59 | 228 | 0.0 | 7.0 | 0.00 | 0.00 | 0.37 | 85 | 1016.6 |
| 20260505054639 | 59 | 229 | 0.0 | 7.0 | 0.00 | 0.00 | 0.37 | 85 | 1016.6 |
| 20260505054116 | 59 | 228 | 0.0 | 7.0 | 0.00 | 0.00 | 0.37 | 84 | 1016.6 |
| 20260505053600 | 60 | 229 | 0.0 | 7.0 | 0.00 | 0.00 | 0.37 | 83 | 1016.9 |
| 20260505053047 | 60 | 228 | 0.9 | 7.0 | 0.00 | 0.00 | 0.37 | 80 | 1016.6 |
| 20260505052532 | 60 | 229 | 0.0 | 7.0 | 0.00 | 0.00 | 0.37 | 80 | 1016.6 |
| 20260505052023 | 60 | 237 | 0.9 | 7.0 | 0.00 | 0.00 | 0.37 | 78 | 1016.6 |
| 20260505051510 | 60 | 238 | 0.0 | 7.0 | 0.00 | 0.00 | 0.37 | 78 | 1016.9 |
| 20260505050947 | 61 | 184 | 0.9 | 7.0 | 0.00 | 0.00 | 0.37 | 78 | 1016.9 |
| 20260505050434 | 61 | 226 | 0.9 | 7.0 | 0.00 | 0.00 | 0.37 | 77 | 1016.9 |
| 20260505041735 | 62 | 236 | 5.2 | 7.0 | 0.00 | 0.00 | 0.37 | 71 | 1016.9 |
| 20260505041216 | 62 | 236 | 0.0 | 7.0 | 0.00 | 0.00 | 0.37 | 70 | 1016.9 |
| 20260505040702 | 62 | 270 | 0.9 | 7.0 | 0.00 | 0.00 | 0.37 | 70 | 1016.9 |
| 20260505040139 | 63 | 227 | 5.2 | 5.2 | 0.00 | 0.00 | 0.37 | 68 | 1016.9 |
| 20260505035626 | 63 | 240 | 2.6 | 13.9 | 0.00 | 0.00 | 0.37 | 68 | 1016.9 |
| 20260505035113 | 63 | 243 | 3.5 | 13.9 | 0.00 | 0.00 | 0.37 | 67 | 1016.9 |
| 20260505034604 | 63 | 230 | 5.2 | 13.9 | 0.00 | 0.00 | 0.37 | 67 | 1016.6 |
| 20260505034052 | 63 | 213 | 4.3 | 13.9 | 0.00 | 0.00 | 0.37 | 67 | 1016.9 |
| 20260505033538 | 63 | 219 | 2.6 | 13.9 | 0.00 | 0.00 | 0.37 | 66 | 1016.9 |
| 20260505033033 | 63 | 262 | 0.9 | 13.9 | 0.00 | 0.00 | 0.37 | 66 | 1016.9 |
| 20260505032518 | 64 | 241 | 1.7 | 13.9 | 0.00 | 0.00 | 0.37 | 66 | 1016.9 |
| 20260505032007 | 64 | 231 | 3.5 | 13.9 | 0.00 | 0.00 | 0.37 | 66 | 1016.6 |
| 20260505031448 | 64 | 240 | 5.2 | 13.9 | 0.00 | 0.00 | 0.37 | 66 | 1016.9 |
| 20260505030944 | 64 | 228 | 7.0 | 13.9 | 0.00 | 0.00 | 0.37 | 64 | 1016.6 |
| 20260505030432 | 64 | 193 | 4.3 | 13.9 | 0.00 | 0.00 | 0.37 | 64 | 1016.9 |
| 20260505025913 | 64 | 256 | 1.7 | 13.9 | 0.00 | 0.00 | 0.37 | 63 | 1016.6 |
| 20260505025350 | 64 | 231 | 3.5 | 13.9 | 0.00 | 0.00 | 0.37 | 61 | 1016.6 |
| 20260505024826 | 64 | 222 | 2.6 | 13.9 | 0.00 | 0.00 | 0.37 | 63 | 1016.9 |
| 20260505024311 | 64 | 168 | 3.5 | 13.9 | 0.00 | 0.00 | 0.37 | 62 | 1016.9 |
| 20260505023800 | 65 | 195 | 1.7 | 13.9 | 0.00 | 0.00 | 0.37 | 61 | 1016.6 |
| 20260505023244 | 65 | 224 | 6.1 | 13.9 | 0.00 | 0.00 | 0.37 | 61 | 1017.3 |
| 20260505022736 | 65 | 217 | 3.5 | 13.9 | 0.00 | 0.00 | 0.37 | 61 | 1016.9 |
| 20260505022224 | 65 | 253 | 5.2 | 13.9 | 0.00 | 0.00 | 0.37 | 60 | 1017.3 |
| 20260505021721 | 65 | 90 | 3.5 | 13.9 | 0.00 | 0.00 | 0.37 | 61 | 1016.6 |
| 20260505021155 | 65 | 127 | 0.9 | 13.9 | 0.00 | 0.00 | 0.37 | 60 | 1016.6 |
| 20260505020642 | 65 | 243 | 3.5 | 13.9 | 0.00 | 0.00 | 0.37 | 59 | 1016.6 |
| 20260505020127 | 66 | 260 | 1.7 | 13.9 | 0.00 | 0.00 | 0.37 | 59 | 1016.6 |
| 20260505015610 | 66 | 251 | 3.5 | 13.9 | 0.00 | 0.00 | 0.37 | 59 | 1016.6 |
| 20260505015106 | 66 | 226 | 2.6 | 13.9 | 0.00 | 0.00 | 0.37 | 59 | 1016.3 |
| 20260505014543 | 66 | 253 | 4.3 | 13.9 | 0.00 | 0.00 | 0.37 | 59 | 1016.9 |
| 20260505014036 | 66 | 179 | 0.0 | 13.9 | 0.00 | 0.00 | 0.37 | 57 | 1016.3 |
| 20260505013520 | 67 | 232 | 7.0 | 13.9 | 0.00 | 0.00 | 0.37 | 57 | 1016.3 |
| 20260505013015 | 67 | 265 | 1.7 | 13.9 | 0.00 | 0.00 | 0.37 | 58 | 1016.6 |
| 20260505012459 | 67 | 225 | 3.5 | 13.9 | 0.00 | 0.00 | 0.37 | 58 | 1016.3 |
| 20260505011937 | 67 | 237 | 2.6 | 13.9 | 0.00 | 0.00 | 0.37 | 56 | 1016.3 |
| 20260505011419 | 68 | 197 | 3.5 | 13.9 | 0.00 | 0.00 | 0.37 | 56 | 1016.3 |
| 20260505010908 | 68 | 229 | 6.1 | 13.9 | 0.00 | 0.00 | 0.37 | 53 | 1016.3 |
| 20260505010352 | 68 | 332 | 2.6 | 13.9 | 0.00 | 0.00 | 0.37 | 53 | 1015.9 |
| 20260505005847 | 69 | 246 | 13.9 | 13.9 | 0.00 | 0.00 | 0.37 | 54 | 1016.3 |
| 20260505005333 | 69 | 239 | 5.2 | 13.0 | 0.00 | 0.00 | 0.37 | 52 | 1015.9 |
| 20260505004828 | 69 | 216 | 7.8 | 13.0 | 0.00 | 0.00 | 0.37 | 53 | 1015.9 |
| 20260505004320 | 69 | 192 | 2.6 | 13.0 | 0.00 | 0.00 | 0.37 | 53 | 1015.6 |
| 20260505003803 | 70 | 234 | 2.6 | 13.0 | 0.00 | 0.00 | 0.37 | 52 | 1015.6 |
| 20260505003259 | 70 | 212 | 3.5 | 13.0 | 0.00 | 0.00 | 0.37 | 51 | 1015.6 |
| 20260505002745 | 70 | 258 | 0.9 | 13.0 | 0.00 | 0.00 | 0.37 | 47 | 1015.2 |
| 20260505002232 | 71 | 245 | 2.6 | 13.0 | 0.00 | 0.00 | 0.37 | 43 | 1015.2 |
| 20260505001718 | 71 | 262 | 1.7 | 13.0 | 0.00 | 0.00 | 0.37 | 40 | 1015.2 |
| 20260505001202 | 71 | 234 | 2.6 | 13.0 | 0.00 | 0.00 | 0.37 | 32 | 1015.2 |
| 20260505000652 | 71 | 241 | 6.1 | 13.0 | 0.00 | 0.00 | 0.37 | 26 | 1015.2 |
| 20260505000124 | 72 | 234 | 3.5 | 13.0 | 0.00 | 0.00 | 0.37 | 26 | 1015.2 |
| 20260504235602 | 72 | 211 | 1.7 | 13.0 | 0.00 | 0.00 | 0.37 | 25 | 1015.2 |
| 20260504235046 | 72 | 227 | 2.6 | 13.0 | 0.00 | 0.00 | 0.37 | 24 | 1014.9 |
| 20260504234530 | 73 | 232 | 1.7 | 13.0 | 0.00 | 0.00 | 0.37 | 23 | 1015.2 |
| 20260504234023 | 73 | 211 | 0.9 | 13.0 | 0.00 | 0.00 | 0.37 | 21 | 1014.9 |
| 20260504233459 | 73 | 269 | 3.5 | 13.0 | 0.00 | 0.00 | 0.37 | 22 | 1014.9 |
| 20260504232944 | 74 | 206 | 2.6 | 13.0 | 0.00 | 0.00 | 0.37 | 21 | 1014.6 |
| 20260504232429 | 74 | 221 | 2.6 | 13.0 | 0.00 | 0.00 | 0.37 | 20 | 1014.6 |
| 20260504231914 | 74 | 221 | 0.0 | 13.0 | 0.00 | 0.00 | 0.37 | 18 | 1014.6 |
| 20260504231400 | 74 | 253 | 7.0 | 13.0 | 0.00 | 0.00 | 0.37 | 18 | 1014.6 |
| 20260504230845 | 74 | 213 | 3.5 | 13.0 | 0.00 | 0.00 | 0.37 | 15 | 1014.2 |
| 20260504230331 | 74 | 236 | 6.1 | 13.0 | 0.00 | 0.00 | 0.37 | 15 | 1014.2 |
| 20260504225825 | 75 | 242 | 1.7 | 13.0 | 0.00 | 0.00 | 0.37 | 15 | 1014.2 |
| 20260504225313 | 75 | 229 | 3.5 | 13.0 | 0.00 | 0.00 | 0.37 | 14 | 1014.6 |
| 20260504224757 | 75 | 241 | 0.0 | 13.0 | 0.00 | 0.00 | 0.37 | 13 | 1014.6 |
| 20260504224252 | 75 | 238 | 2.6 | 13.0 | 0.00 | 0.00 | 0.37 | 13 | 1014.6 |
| 20260504223740 | 76 | 238 | 3.5 | 13.0 | 0.00 | 0.00 | 0.37 | 9 | 1014.2 |
| 20260504223225 | 76 | 259 | 2.6 | 13.0 | 0.00 | 0.00 | 0.37 | 12 | 1014.6 |
| 20260504222719 | 76 | 247 | 2.6 | 13.0 | 0.00 | 0.00 | 0.37 | 11 | 1014.6 |
| 20260504222156 | 76 | 261 | 6.1 | 13.0 | 0.00 | 0.00 | 0.37 | 10 | 1014.6 |
| 20260504221638 | 76 | 245 | 7.0 | 13.0 | 0.00 | 0.00 | 0.37 | 9 | 1014.6 |
| 20260504221131 | 76 | 253 | 7.0 | 13.0 | 0.00 | 0.00 | 0.37 | 13 | 1014.6 |
| 20260504220611 | 76 | 140 | 3.5 | 13.0 | 0.00 | 0.00 | 0.37 | 10 | 1014.2 |
| 20260504220047 | 76 | 191 | 3.5 | 13.0 | 0.00 | 0.00 | 0.37 | 9 | 1014.6 |
| 20260504215532 | 77 | 271 | 2.6 | 13.0 | 0.00 | 0.00 | 0.37 | 13 | 1014.6 |
| 20260504215028 | 77 | 216 | 2.6 | 13.0 | 0.00 | 0.00 | 0.37 | 11 | 1014.6 |
| 20260504214515 | 77 | 248 | 2.6 | 13.0 | 0.00 | 0.00 | 0.37 | 16 | 1014.6 |
| 20260504214002 | 77 | 209 | 1.7 | 13.0 | 0.00 | 0.00 | 0.37 | 11 | 1014.6 |
| 20260504213456 | 77 | 250 | 3.5 | 13.0 | 0.00 | 0.00 | 0.37 | 11 | 1014.6 |
| 20260504212947 | 77 | 233 | 4.3 | 13.0 | 0.00 | 0.00 | 0.37 | 7 | 1014.6 |
| 20260504212445 | 77 | 245 | 6.1 | 13.0 | 0.00 | 0.00 | 0.37 | 9 | 1014.6 |